Location: Allaines
(49.9632°N, 2.9458°E)
Time: 03:31:29
(UTC+00:00)

Cosmos 1953 - Pass Details

Date: 09 April 2020
Orbit: 539 x 558 km, 82.5° (Epoch: 04 June)

Event Time Altitude Azimuth Distance (km) Brightness Sun altitude
Rises 19:32:43 0° 213° (SSW) 2,692 5.9 -9.8°
Reaches altitude 10° 19:35:01 10° 223° (SW) 1,807 5.2 -10.2°
Maximum altitude 19:38:37 32° 288° (WNW) 950 4.4 -10.7°
Drops below altitude 10° 19:42:16 10° 353° (N) 1,831 5.5 -11.2°
Sets 19:44:37 0° 3° (N) 2,733 6.2 -11.5°
